Regional Weather Roundup
Issued by NWS

Home | Current Version | Previous Version | Graphics & Text | Print | Product List | Glossary On
Versions: 1 2 3 4 5 6 7 8 9 10 11 12 13 14 15 16 17 18 19 20 21 22 23 24 25 26 27
000
ASUS45 KBOU 010207
RWRCO

WEATHER ROUNDUP FOR COLORADO
NATIONAL WEATHER SERVICE DENVER/BOULDER CO
800 PM MDT SAT APR 30 2016

NOTE: "FAIR" INDICATES FEW OR NO CLOUDS BELOW 12000 FEET WITH NO
SIGNIFICANT WEATHER AND/OR OBSTRUCTIONS TO VISIBILITY.

COZ001>005-013-030-031-010300-
...NORTHWEST COLORADO...

CITY           SKY/WX    TMP DP  RH WIND       PRES   REMARKS
CRAIG          FAIR      41  23  48 E13       30.04R
HAYDEN         FAIR      37  19  48 E15       30.04R
MEEKER         FAIR      43  27  53 NE10      29.99R
MOUNT WERNER   NOT AVBL
STEAMBOAT SPGS MOCLDY    36  18  48 N17G26    30.04R
WALDEN         FAIR      30  21  69 NE8       30.11R WCI  23
$$

COZ006>008-011-010300-
...WEST CENTRAL VALLEYS...

CITY           SKY/WX    TMP DP  RH WIND       PRES   REMARKS
GRAND JUNCTION CLOUDY    50  33  52 N13       29.90R
MONTROSE       FAIR      49  28  44 NW9       29.92R
EAGLE          CLOUDY    43  36  75 CALM      30.02R
RIFLE          CLOUDY    47  35  63 E8        29.95R
DELTA          NOT AVBL
NUCLA          NOT AVBL
$$

COZ017>023-064>068-010300-
...SOUTHWEST COLORADO...

CITY           SKY/WX    TMP DP  RH WIND       PRES   REMARKS
DURANGO        FAIR      42  32  67 NE9       29.89R
CORTEZ         FAIR      46  37  71 W6        29.88R
PAGOSA SPRINGS FAIR      40  31  69 NE10      29.93R
TELLURIDE      MOCLDY    38  29  68 W6        29.97R
WOLF CREEK PAS LGT SNOW  21  21 100 SW14      30.05R WCI   8
$$

COZ009-010-012-014-032>034-037-058>063-010300-
...CENTRAL COLORADO...

CITY           SKY/WX    TMP DP  RH WIND       PRES   REMARKS
ASPEN          CLOUDY    38  28  67 W7        29.96R
BUENA VISTA    LGT SNOW  30  27  90 CALM      30.07R
COPPER MTN     NOT AVBL
BERTHOUD PASS  SNOW      10   1  67 E10G23    30.06R VSB 1/2 WCI  -3
COTTONWOOD PAS SNOW      28  25  86 E6        30.06R VSB 1/4 WCI  22
GUNNISON       CLOUDY    45  25  45 N10       29.94R
KREMMLING      CLOUDY    34  30  86 CALM      30.07R
LEADVILLE      LGT SNOW  24  23  96 S17       30.00R VSB 1   WCI  11
SALIDA         CLOUDY    33  31  94 E8        30.13R WCI  25
SUNLIGHT       CLOUDY   N/A N/A N/A NE3       30.06R
WILKERSON PASS CLOUDY   N/A N/A N/A NE10G17   30.07R FOG
$$

COZ069>075-010300-
...SAN LUIS VALLEY/SANGRE DE CRISTO MOUNTAINS...

CITY           SKY/WX    TMP DP  RH WIND       PRES   REMARKS
ALAMOSA        CLOUDY    37  27  67 E14G24    29.92R
LA VETA PASS   SNOW      21  19  93 MISG      30.04R VSB 1/2
SAGUACHE       CLOUDY    41  32  70 SW6       29.94R
$$

COZ035-036-038>040-010300-
...NORTHERN COLORADO FRONT RANGE...

CITY           SKY/WX    TMP DP  RH WIND       PRES   REMARKS
DENVER INTL AP LGT SNOW  33  30  88 N15       30.12R FOG     WCI  23
DMNS CITY PARK   N/A     34  33  94 N8        30.14R WCI  28
AURORA         LGT SNOW  32  32 100 N14       30.13R FOG     WCI  22
FRONT RANGE AP LGT SNOW  32  32 100 NW12      30.12R WCI  23
ERIE MUNI ARPT CLOUDY    37  33  86 N12       30.15R
BOULDER MUN AP CLOUDY    37  32  81 N7        30.14R
CENTENNIAL     LGT SNOW  32  32 100 N10       30.12R VSB 1   WCI  24
BROOMFIELD     LGT RAIN  36  32  87 N12       30.14R
FORT COLLINS   FAIR      36  32  87 NW9       30.15R
LONGMONT       CLOUDY    39  32  76 N10       30.17R HAZE
$$

COZ041-046-047-076>085-087-088-010300-
...PIKES PEAK/PALMER DIVIDE AND SOUTHERN FOOTHILLS...

CITY           SKY/WX    TMP DP  RH WIND       PRES   REMARKS
COLO. SPRINGS  CLOUDY    33  26  75 N18       30.10R WCI  22
A. F. ACADEMY  MIX PCPN  32  27  80 NW20      30.08R WCI  20
SCHRIEVER AFB  NOT AVBL
ELLICOTT       NOT AVBL
FALCON         CLOUDY    30  26  83 N17G28    30.08R WCI  18
FORT CARSON    MOCLDY    36  27  69 N23G37    30.06R
LIMON          LGT SNOW  31  30  96 N28       30.04R FOG     WCI  17
MONUMENT HILL  CLOUDY    28  27  93 N21       30.09R WCI  15
TRINIDAD       LGT SNOW  33  31  92 SW6       30.09R FOG     WCI  28
$$

COZ042>045-048>051-090-091-010300-
...NORTHEAST COLORADO...

CITY           SKY/WX    TMP DP  RH WIND       PRES   REMARKS
GREELEY ARPT   CLOUDY    37  30  75 N20G25    30.14R
AKRON          LGT SNOW  32  30  92 NW24      30.05R FOG     WCI  19
BURLINGTON     CLOUDY    35  31  85 N20G30    29.99R WCI  24
WRAY           NOT AVBL
STERLING       DRIZZLE   34  34 100 N18       30.06R WCI  23
HOLYOKE        NOT AVBL
FORT MORGAN    DRIZZLE   34  32  92 N17       30.10R WCI  24
$$

COZ086-089-092>099-010300-
...SOUTHEAST COLORADO...

CITY           SKY/WX    TMP DP  RH WIND       PRES   REMARKS
PUEBLO         CLOUDY    42  28  57 N21G28    30.08R
LA JUNTA       FAIR      40  30  67 N20       30.08R
LAMAR          CLOUDY    39  31  72 N16       30.02R
SPRINGFIELD      N/A     39  30  70 NW23G29   30.01R
$$




USA.gov is the U.S. government's official web portal to all federal, state and local government web resources and services.